Starlink 32147

operational
NORAD ID: 60152 Int'l Des: 2024-120 Owner: SPXS Country: US Constellation: starlink
LEOCIRCULAR

Starlink 32147について

説明を読み込み中...

リアルタイム位置

3D地球を読み込み中...

次回通過

高度履歴

Altitude vs Time

uPlot chart will show altitude changes over time

軌道要素

1 60152U 24120T 25350.68428021 .00003453 00000-0 12859-3 0 9992
2 60152 53.1629 345.7637 0001305 93.5898 266.5252 15.30215695 83666
Epoch: Dec 16, 2025 • Age: 14 hours

現在のステータス

高度 475.2 km
速度 7.63 km/s
衛星直下点 10.53°N, 166.02°E
打ち上げ日 Jun 27, 2024
運用期間 1.4 years
タイプ internet

技術仕様

分類 Payload
質量 730.00 kg
乾燥質量 700.00 kg
総質量 730.00 kg
長さ 0.30 m
直径 4.10 m
スパン 29.00 m
形状 Box + pan
製造者 SPXS
バスタイプ Starlink V2M
フェーズステータス In Orbit
所有者/国 SPXS/US

大規模コンステレーション

Loading constellations...